Find Starlink 30282

NORAD ID: 57883 Int'l Des: 2023-144 Owner: SPXS Country: US Constellation: starlink operational
LEOCIRCULAR

Live-Position

3D-Globus wird geladen...

Über Starlink 30282

Beschreibung wird geladen...

Nächste Überflüge

Passes for default location (London). Set your location on the main map for personalized predictions.

Höhenverlauf

Loading altitude history...

Zweizeiliger Elementsatz

1 57883U 23144V 26125.58709025 .00005198 00000-0 19832-3 0 9996
2 57883 42.9995 323.4881 0001534 276.3933 83.6744 15.27573383146340
Epoch: 5. Mai 2026 • Age: 16 hours

Aktueller Status

Höhe 489.3 km
Geschwindigkeit 7.62 km/s
Subsatellitenpunkt -27.54°S, 22.02°W
Startdatum 16. Sept. 2023
Alter 2.6 years
Typ internet

Technische Details

Klassifizierung Payload
Masse 730.00 kg
Trockenmasse 700.00 kg
Gesamtmasse 730.00 kg
Länge 0.30 m
Durchmesser 4.10 m
Spannweite 29.00 m
Form Box + pan
Hersteller SPXS
Bus-Typ Starlink V2M
Phasenstatus In Orbit
Besitzer/Staat SPXS/US

Most Searched